• In Uzbekistan
  • List of Countries
  • For 7 days
  • Water Temperature
  • Satellite Maps
  • Weather Map
  • Weather Widgets
  • user-avatar
    Login

    Hourly Weather Etchmiadzin

    Today, 30 April, Sunday

    Time Temperature Precipitation Wind Pressure Humidity
    00:00 +13°C° 0.4 mm 1 mps 686 mmHg 77%
    01:00 +13°C° 0.2 mm 1 mps 685 mmHg 78%
    02:00 +12°C° 0.2 mm 1 mps 685 mmHg 79%
    03:00 +11°C° 0 mm 1 mps 684 mmHg 81%
    04:00 +12°C° 0.1 mm 1 mps 685 mmHg 80%
    05:00 +12°C° 0.1 mm 1 mps 685 mmHg 78%
    06:00 +12°C° 0.1 mm 1 mps 685 mmHg 76%
    07:00 +15°C° 0.1 mm 1 mps 686 mmHg 67%
    08:00 +18°C° 0.1 mm 1 mps 686 mmHg 58%
    09:00 +20°C° 0 mm 1 mps 686 mmHg 49%
    10:00 +20°C° 0.1 mm 2 mps 686 mmHg 45%
    11:00 +21°C° 0.1 mm 2 mps 686 mmHg 42%
    12:00 +23°C° 0.1 mm 2 mps 686 mmHg 39%
    13:00 +23°C° 0.2 mm 2 mps 686 mmHg 38%
    14:00 +24°C° 0.2 mm 2 mps 686 mmHg 37%
    15:00 +23°C° 0 mm 2 mps 686 mmHg 38%
    16:00 +21°C° 0.2 mm 2 mps 685 mmHg 41%
    17:00 +21°C° 0.2 mm 2 mps 685 mmHg 45%
    18:00 +20°C° 0.2 mm 2 mps 685 mmHg 48%
    19:00 +18°C° 0 mm 2 mps 685 mmHg 53%
    20:00 +16°C° 0 mm 1 mps 685 mmHg 58%
    21:00 +13°C° 0 mm 1 mps 685 mmHg 63%
    22:00 +13°C° 0 mm 1 mps 685 mmHg 63%
    23:00 +12°C° 0 mm 1 mps 685 mmHg 64%

    Tomorrow, 1 May, Monday

    Time Temperature Precipitation Wind Pressure Humidity
    00:00 +12°C° 0 mm 1 mps 685 mmHg 65%
    01:00 +12°C° 0 mm 1 mps 685 mmHg 65%
    02:00 +11°C° 0 mm 1 mps 685 mmHg 64%
    03:00 +11°C° 0 mm 1 mps 685 mmHg 64%
    04:00 +11°C° 0 mm 1 mps 685 mmHg 62%
    05:00 +12°C° 0 mm 1 mps 685 mmHg 60%
    06:00 +12°C° 0 mm 1 mps 685 mmHg 58%
    07:00 +15°C° 0 mm 1 mps 686 mmHg 51%
    08:00 +19°C° 0 mm 1 mps 686 mmHg 44%
    09:00 +20°C° 0 mm 2 mps 687 mmHg 37%
    10:00 +23°C° 0 mm 2 mps 687 mmHg 33%
    11:00 +24°C° 0 mm 2 mps 687 mmHg 30%
    12:00 +25°C° 0 mm 2 mps 687 mmHg 27%
    13:00 +26°C° 0 mm 2 mps 686 mmHg 26%
    14:00 +26°C° 0 mm 2 mps 686 mmHg 25%
    15:00 +26°C° 0 mm 2 mps 686 mmHg 25%
    16:00 +25°C° 0 mm 2 mps 685 mmHg 30%
    17:00 +23°C° 0 mm 1 mps 685 mmHg 36%
    18:00 +22°C° 0 mm 1 mps 685 mmHg 42%
    19:00 +20°C° 0 mm 1 mps 685 mmHg 44%
    20:00 +19°C° 0 mm 1 mps 685 mmHg 46%
    21:00 +16°C° 0 mm 1 mps 685 mmHg 49%
    22:00 +15°C° 0 mm 1 mps 685 mmHg 53%
    23:00 +15°C° 0 mm 1 mps 685 mmHg 57%

    Day after tomorrow, 2 May, Tuesday

    Time Temperature Precipitation Wind Pressure Humidity
    00:00 +15°C° 0 mm 1 mps 686 mmHg 61%
    01:00 +15°C° 0.1 mm 1 mps 686 mmHg 63%
    02:00 +15°C° 0.1 mm 1 mps 686 mmHg 65%
    03:00 +15°C° 0.1 mm 1 mps 686 mmHg 67%
    04:00 +15°C° 0.4 mm 1 mps 686 mmHg 67%
    05:00 +15°C° 0.4 mm 1 mps 686 mmHg 67%
    06:00 +15°C° 0.4 mm 1 mps 686 mmHg 67%
    07:00 +18°C° 0.1 mm 1 mps 686 mmHg 60%
    08:00 +20°C° 0.1 mm 1 mps 686 mmHg 54%
    09:00 +22°C° 0.1 mm 1 mps 686 mmHg 47%
    10:00 +23°C° 0 mm 1 mps 686 mmHg 43%
    11:00 +24°C° 0 mm 2 mps 686 mmHg 39%
    12:00 +26°C° 0 mm 2 mps 686 mmHg 35%
    13:00 +25°C° 0.1 mm 2 mps 685 mmHg 36%
    14:00 +25°C° 0.1 mm 2 mps 685 mmHg 37%
    15:00 +25°C° 0.1 mm 3 mps 685 mmHg 38%
    16:00 +24°C° 0.3 mm 2 mps 684 mmHg 44%
    17:00 +21°C° 0.3 mm 2 mps 684 mmHg 50%
    18:00 +20°C° 0.3 mm 2 mps 684 mmHg 56%
    19:00 +19°C° 0.8 mm 2 mps 684 mmHg 61%
    20:00 +18°C° 0.8 mm 2 mps 684 mmHg 66%
    21:00 +18°C° 0.8 mm 1 mps 684 mmHg 72%
    22:00 +18°C° 0.7 mm 1 mps 684 mmHg 74%
    23:00 +16°C° 0.7 mm 1 mps 684 mmHg 76%

    3 May, Wednesday

    Time Temperature Precipitation Wind Pressure Humidity
    00:00 +16°C° 0.7 mm 1 mps 683 mmHg 78%
    01:00 +15°C° 0.3 mm 1 mps 683 mmHg 80%
    02:00 +15°C° 0.3 mm 1 mps 683 mmHg 81%
    03:00 +14°C° 0.3 mm 1 mps 682 mmHg 83%
    04:00 +15°C° 0.4 mm 1 mps 683 mmHg 82%
    05:00 +15°C° 0.4 mm 1 mps 683 mmHg 81%
    06:00 +15°C° 0.4 mm 1 mps 683 mmHg 80%
    07:00 +16°C° 0.4 mm 1 mps 683 mmHg 74%
    08:00 +19°C° 0.4 mm 1 mps 683 mmHg 68%
    09:00 +20°C° 0.4 mm 2 mps 683 mmHg 62%
    10:00 +21°C° 0.6 mm 2 mps 683 mmHg 57%
    11:00 +23°C° 0.6 mm 2 mps 683 mmHg 51%
    12:00 +24°C° 0.6 mm 3 mps 683 mmHg 46%
    13:00 +24°C° 0.9 mm 3 mps 683 mmHg 46%
    14:00 +24°C° 0.9 mm 3 mps 682 mmHg 47%
    15:00 +24°C° 0.9 mm 3 mps 682 mmHg 47%
    16:00 +23°C° 0.8 mm 2 mps 682 mmHg 51%
    17:00 +21°C° 0.8 mm 2 mps 682 mmHg 54%
    18:00 +20°C° 0.8 mm 2 mps 682 mmHg 58%
    19:00 +18°C° 0.3 mm 2 mps 683 mmHg 61%
    20:00 +17°C° 0.3 mm 2 mps 683 mmHg 65%
    21:00 +15°C° 0.3 mm 2 mps 683 mmHg 69%
    22:00 +15°C° 0.1 mm 1 mps 683 mmHg 71%
    23:00 +14°C° 0.1 mm 1 mps 683 mmHg 72%

    4 May, Thursday

    Time Temperature Precipitation Wind Pressure Humidity
    00:00 +13°C° 0.1 mm 1 mps 682 mmHg 74%
    01:00 +13°C° 0 mm 1 mps 682 mmHg 74%
    02:00 +13°C° 0 mm 1 mps 682 mmHg 74%
    03:00 +13°C° 0 mm 1 mps 682 mmHg 74%
    04:00 +13°C° 0.1 mm 1 mps 682 mmHg 73%
    05:00 +13°C° 0.1 mm 1 mps 682 mmHg 71%
    06:00 +13°C° 0.1 mm 0 mps 683 mmHg 70%
    07:00 +16°C° 0.1 mm 1 mps 683 mmHg 63%
    08:00 +18°C° 0.1 mm 1 mps 683 mmHg 57%
    09:00 +20°C° 0.1 mm 1 mps 683 mmHg 50%
    10:00 +22°C° 0.1 mm 1 mps 683 mmHg 46%
    11:00 +23°C° 0.1 mm 1 mps 683 mmHg 42%
    12:00 +24°C° 0.1 mm 1 mps 683 mmHg 38%
    13:00 +24°C° 0.1 mm 1 mps 683 mmHg 38%
    14:00 +24°C° 0.1 mm 1 mps 683 mmHg 37%
    15:00 +25°C° 0.1 mm 1 mps 682 mmHg 37%
    16:00 +24°C° 0.2 mm 1 mps 682 mmHg 41%
    17:00 +23°C° 0.2 mm 1 mps 682 mmHg 45%
    18:00 +22°C° 0.2 mm 1 mps 683 mmHg 49%
    19:00 +20°C° 0.2 mm 1 mps 683 mmHg 54%
    20:00 +18°C° 0.2 mm 1 mps 683 mmHg 59%
    21:00 +15°C° 0.2 mm 1 mps 683 mmHg 64%
    22:00 +15°C° 0.2 mm 1 mps 683 mmHg 66%
    23:00 +14°C° 0.2 mm 1 mps 683 mmHg 68%

    5 May, Friday

    Time Temperature Precipitation Wind Pressure Humidity
    00:00 +14°C° 0.2 mm 1 mps 683 mmHg 70%
    01:00 +13°C° 0.1 mm 1 mps 683 mmHg 71%
    02:00 +13°C° 0.1 mm 1 mps 683 mmHg 72%
    03:00 +13°C° 0.1 mm 1 mps 683 mmHg 73%
    04:00 +13°C° 0.1 mm 1 mps 683 mmHg 72%
    05:00 +14°C° 0.1 mm 1 mps 684 mmHg 71%
    06:00 +14°C° 0.1 mm 1 mps 684 mmHg 69%
    07:00 +16°C° 0.2 mm 1 mps 684 mmHg 63%
    08:00 +19°C° 0.2 mm 1 mps 685 mmHg 57%
    09:00 +21°C° 0.2 mm 1 mps 685 mmHg 51%
    10:00 +22°C° 0.3 mm 1 mps 685 mmHg 48%
    11:00 +23°C° 0.3 mm 2 mps 684 mmHg 46%
    12:00 +24°C° 0.3 mm 2 mps 684 mmHg 44%
    13:00 +24°C° 0.5 mm 2 mps 684 mmHg 44%
    14:00 +25°C° 0.5 mm 2 mps 683 mmHg 44%
    15:00 +25°C° 0.5 mm 2 mps 683 mmHg 43%
    16:00 +24°C° 0.6 mm 2 mps 683 mmHg 47%
    17:00 +23°C° 0.6 mm 2 mps 683 mmHg 51%
    18:00 +22°C° 0.6 mm 1 mps 683 mmHg 55%
    19:00 +21°C° 0.7 mm 1 mps 683 mmHg 59%
    20:00 +19°C° 0.7 mm 1 mps 683 mmHg 63%
    21:00 +16°C° 0.7 mm 2 mps 684 mmHg 67%
    22:00 +16°C° 0.3 mm 1 mps 684 mmHg 70%
    23:00 +15°C° 0.3 mm 1 mps 684 mmHg 72%
    Show more